sat.trackr.live / text

‹ back to catalog

STARLINK-32850

NORAD 62950 · 2025-029C

PAYLOAD ACTIVE UNKNOWN

§ Identity

Operator
Country
US
Launch date
2025-02-11
Launch site
AFWTR
Launch vehicle
Mass (kg)
RCS (m²)

Purposes: comms

External: N2YO · Heavens-Above · Gunter

§ Orbital elements

Epoch: 2026-09-21T20:39:34.200000Z

Period
94.01 min
Inclination
53.1590°
Eccentricity
0.0000874
Mean motion
15.31725843 rev/d
Perigee alt
470.1 km
Apogee alt
471.3 km
Semi-major
6,848.8 km
B*
5.1642e-4
RAAN
39.7469°
Arg perigee
66.1086°
Mean anomaly
294.0007°
Rev number
9,138

§ Raw data

STARLINK-328501 62950U 25029C   26264.86081250  .00015707  00000+0  51642-3 0  99902 62950  53.1590  39.7469 0000874  66.1086 294.0007 15.31725843 91383

JSON: /api/v1/satellites/62950 · /tle

For live sub-satellite position, see the globe view (requires WebGL).

§ Visibility from observer

Set your observer location to see the next 7 days of passes ≥ 10°. The values pass through the URL so the page stays shareable.

No JS? Fill the form by hand. The geolocation button needs JavaScript.